Location: Newark
(48.6461°N, 4.3644°W)
Time: 06:06:16
(UTC+00:00)

Courier 1B - All Passes

Search period start: 27 January 2020 00:00
Search period end: 06 February 2020 00:00
Orbit: 962 x 1209 km, 28.3° (Epoch: 26 January)

Date Brightness Start Highest point End Pass type
(mag) Time Alt. Az. Time Alt. Az. Time Alt. Az.
27 Jan - 03:30:27 10° SSW 03:33:53 14° S 03:37:23 10° SE visible
27 Jan - 05:23:09 10° SW 05:26:37 14° S 05:30:10 10° SSE visible
28 Jan - 02:37:43 10° S 02:40:25 12° SSE 02:43:11 10° SE visible
28 Jan - 04:29:29 10° SSW 04:33:07 14° S 04:36:48 10° SSE visible
29 Jan - 01:45:48 10° S 01:46:59 10° SSE 01:48:10 10° SSE night (unlit)
29 Jan - 03:36:05 10° SSW 03:39:36 14° S 03:43:13 10° SSE visible
29 Jan - 05:30:36 10° SSW 05:32:19 11° SSW 05:34:02 10° S visible
30 Jan - 02:42:54 10° SSW 02:46:08 14° S 02:49:26 10° SSE visible
30 Jan - 04:36:14 10° SSW 04:38:50 12° S 04:41:28 10° S visible
31 Jan - 01:50:01 10° SSW 01:52:41 12° S 01:55:25 10° SSE night (unlit)
31 Jan - 03:42:24 10° SSW 03:45:21 13° S 03:48:21 10° SSE visible
01 Feb - 00:57:38 10° S 00:59:16 11° SSE 01:00:56 10° SSE night (unlit)
01 Feb - 02:48:51 10° SSW 02:51:52 13° S 02:54:58 10° SSE visible
02 Feb - 01:55:33 10° SSW 01:58:26 13° S 02:01:23 10° SSE night (unlit)
02 Feb - 03:50:38 10° SSW 03:51:04 10° SSW 03:51:32 10° S visible
03 Feb - 01:02:30 10° SSW 01:05:01 12° S 01:07:35 10° SSE night (unlit)
03 Feb - 02:55:45 10° SSW 02:57:38 11° S 02:59:32 10° S night (unlit)
04 Feb - 00:09:48 10° S 00:11:37 11° S 00:13:27 10° SSE night (unlit)
04 Feb - 02:01:55 10° SSW 02:04:12 12° S 02:06:32 10° SSE night (unlit)
05 Feb - 01:08:23 10° SSW 01:10:47 12° S 01:13:14 10° SSE night (unlit)
